[Date Prev][Date Next][Thread Prev][Thread Next] - [Date Index][Thread Index][Author Index]
2 Line ISS Keps 5-7
- Subject: [sarex] 2 Line ISS Keps 5-7
- From: "Dave Larsen PhD" <doc@xxxxxxxxxxx>
- Date: Sat, 6 May 2006 20:09:51 -0700
ISS
1 25544U 98067A 06126.95626350 .00019720 00000-0 13311-3 0 8834
2 25544 051.6389 039.7155 0009883 167.6156 295.0399 15.75043874426669
----
Via the sarex mailing list at AMSAT.ORG courtesy of AMSAT-NA.
To unsubscribe, send "unsubscribe sarex" to Majordomo@amsat.org
AMSAT Home